TimeAKDT,TemperatureF,Dew PointF,Humidity,Sea Level PressureIn,VisibilityMPH,Wind Direction,Wind SpeedMPH,Gust SpeedMPH,PrecipitationIn,Events,Conditions,WindDirDegrees,DateUTC
12:27 AM,37.4,37.4,100,29.77,1.8,Calm,Calm,-,N/A,,Overcast,0,2012-10-03 08:27:00
12:50 AM,37.4,37.4,100,29.77,3.0,Calm,Calm,-,N/A,,Overcast,0,2012-10-03 08:50:00
12:53 AM,37.9,37.9,100,29.78,6.0,Calm,Calm,-,N/A,,Overcast,0,2012-10-03 08:53:00
1:00 AM,37.4,37.4,100,29.78,10.0,Calm,Calm,-,N/A,,Overcast,0,2012-10-03 09:00:00
1:51 AM,37.4,37.4,100,29.78,2.5,ENE,3.5,-,N/A,,Overcast,60,2012-10-03 09:51:00
1:53 AM,37.9,37.9,100,29.79,2.0,Calm,Calm,-,N/A,,Overcast,0,2012-10-03 09:53:00
2:00 AM,37.4,37.4,100,29.79,1.0,East,3.5,-,N/A,,Overcast,80,2012-10-03 10:00:00
2:22 AM,37.4,37.4,100,29.80,3.0,Calm,Calm,-,N/A,,Overcast,0,2012-10-03 10:22:00
2:48 AM,37.4,37.4,100,29.80,10.0,Calm,Calm,-,N/A,,Overcast,0,2012-10-03 10:48:00
2:53 AM,37.0,37.0,100,29.80,10.0,North,3.5,-,N/A,,Overcast,10,2012-10-03 10:53:00
3:46 AM,37.4,37.4,100,29.81,10.0,Calm,Calm,-,N/A,,Overcast,0,2012-10-03 11:46:00
3:53 AM,36.0,36.0,100,29.81,10.0,Calm,Calm,-,N/A,,Overcast,0,2012-10-03 11:53:00
4:53 AM,37.0,37.0,100,29.83,10.0,Calm,Calm,-,N/A,,Overcast,0,2012-10-03 12:53:00
5:26 AM,37.4,35.6,93,29.83,10.0,Calm,Calm,-,N/A,,Overcast,0,2012-10-03 13:26:00
5:51 AM,37.4,35.6,93,29.83,10.0,Calm,Calm,-,N/A,,Overcast,0,2012-10-03 13:51:00
5:53 AM,37.0,36.0,96,29.84,10.0,Calm,Calm,-,N/A,,Overcast,0,2012-10-03 13:53:00
6:53 AM,37.0,37.0,100,29.84,10.0,North,4.6,-,N/A,,Overcast,10,2012-10-03 14:53:00
7:24 AM,37.4,35.6,93,29.84,10.0,North,3.5,-,N/A,,Overcast,360,2012-10-03 15:24:00
7:53 AM,35.1,34.0,96,29.84,10.0,North,3.5,-,N/A,,Partly Cloudy,350,2012-10-03 15:53:00
8:53 AM,36.0,35.1,97,29.83,10.0,NNW,3.5,-,N/A,,Overcast,340,2012-10-03 16:53:00
9:53 AM,41.0,39.0,93,29.84,10.0,NE,5.8,-,N/A,,Mostly Cloudy,50,2012-10-03 17:53:00
10:53 AM,41.0,39.0,93,29.84,10.0,NE,6.9,-,N/A,,Mostly Cloudy,50,2012-10-03 18:53:00
11:53 AM,42.1,39.9,92,29.83,10.0,ENE,9.2,-,0.01,,Mostly Cloudy,70,2012-10-03 19:53:00
12:05 PM,42.8,41.0,93,29.84,10.0,ENE,10.4,-,N/A,,Mostly Cloudy,70,2012-10-03 20:05:00
12:12 PM,42.8,41.0,93,29.83,10.0,ENE,8.1,-,N/A,,Mostly Cloudy,70,2012-10-03 20:12:00
12:48 PM,42.8,41.0,93,29.84,10.0,East,12.7,-,N/A,,Mostly Cloudy,80,2012-10-03 20:48:00
12:53 PM,43.0,41.0,93,29.84,10.0,East,11.5,-,N/A,,Mostly Cloudy,80,2012-10-03 20:53:00
1:51 PM,42.8,42.8,100,29.83,4.0,ESE,11.5,-,N/A,,Overcast,110,2012-10-03 21:51:00
1:53 PM,43.0,43.0,100,29.84,4.0,ESE,10.4,-,N/A,,Overcast,110,2012-10-03 21:53:00
2:20 PM,44.6,42.8,93,29.83,2.0,East,12.7,-,0.01,,Overcast,100,2012-10-03 22:20:00
2:41 PM,42.8,42.8,100,29.82,2.0,East,10.4,-,0.01,,Overcast,100,2012-10-03 22:41:00
2:51 PM,42.8,42.8,100,29.82,6.0,East,12.7,-,0.01,,Overcast,100,2012-10-03 22:51:00
2:53 PM,43.0,43.0,100,29.81,6.0,East,12.7,-,0.01,,Overcast,90,2012-10-03 22:53:00
3:35 PM,44.6,42.8,93,29.81,10.0,East,13.8,-,N/A,,Overcast,90,2012-10-03 23:35:00
3:53 PM,45.0,43.0,93,29.80,10.0,East,12.7,-,N/A,,Overcast,80,2012-10-03 23:53:00
3:57 PM,44.6,42.8,93,29.80,10.0,East,15.0,-,N/A,,Overcast,80,2012-10-03 23:57:00
4:53 PM,45.0,42.1,90,29.78,10.0,East,16.1,-,N/A,,Overcast,90,2012-10-04 00:53:00
5:51 PM,46.4,42.8,87,29.75,10.0,ENE,15.0,-,N/A,,Overcast,70,2012-10-04 01:51:00
5:53 PM,46.0,43.0,89,29.75,10.0,ENE,12.7,-,N/A,,Overcast,70,2012-10-04 01:53:00
6:53 PM,46.0,42.1,86,29.73,10.0,ENE,12.7,19.6,N/A,,Overcast,70,2012-10-04 02:53:00
7:36 PM,46.4,42.8,87,29.71,10.0,East,13.8,-,N/A,,Overcast,80,2012-10-04 03:36:00
7:53 PM,46.0,42.1,86,29.72,10.0,ENE,13.8,21.9,N/A,,Overcast,70,2012-10-04 03:53:00
8:53 PM,46.0,41.0,83,29.67,10.0,ENE,16.1,26.5,0.00,,Overcast,60,2012-10-04 04:53:00
9:53 PM,46.0,39.9,79,29.65,10.0,ENE,15.0,23.0,N/A,,Overcast,60,2012-10-04 05:53:00
10:53 PM,46.9,39.0,74,29.62,10.0,ENE,17.3,26.5,N/A,,Overcast,60,2012-10-04 06:53:00
11:53 PM,46.9,37.9,71,29.59,10.0,ENE,18.4,26.5,0.00,Rain,Light Rain,60,2012-10-04 07:53:00